#timestamp,LO_Frequency,Hit,StdDev 
1460271615.9,286046992.0,N
1460271635.7,286046994.7,N
1460271655.5,286046991.2,N
1460271675.4,286046991.4,N
1460271695.2,286046989.2,N
1460271715.0,286046987.4,Y
1460271715.9,286046987.4,P
1460271735.8,286046989.8,N
1460271755.6,286046989.8,N
1460271775.4,286046988.7,Y
1460271795.3,286046994.9,P
1460271815.1,286046997.1,N
1460271835.8,286046999.5,N
1460271855.7,286046994.9,N
1460271875.5,286046993.3,N
1460271895.3,286046993.9,N
1460271915.2,286046993.0,N
1460271935.9,286046992.7,N
1460271955.7,286046992.9,N
1460271975.6,286046990.6,Y
1460271995.4,286046998.7,P
1460272015.2,286047001.5,N
1460272035.1,286047002.6,N
1460272036.0,286047002.6,N
1460272055.8,286046999.7,N
1460272075.6,286047002.7,N
1460272095.5,286047001.5,N
1460272115.3,286047003.1,N
1460272135.1,286047006.5,N
1460272155.9,286047010.7,Y
1460272175.7,286047006.2,P
1460272195.5,286047008.0,P
1460272215.3,286047011.8,P
1460272235.2,286047013.4,Y
1460272255.0,286047004.8,P
1460272255.9,286047004.8,P
1460272275.8,286047004.7,P
1460272295.6,286047006.5,Y
1460272315.4,286047001.8,P
1460272335.3,286047002.0,N
1460272355.1,286047001.7,N
1460272356.0,286047001.7,N
1460272375.8,286047004.0,N
1460272395.7,286047003.3,N
1460272415.5,286047002.4,N
1460272435.3,286047003.5,N
1460272455.2,286047006.5,Y
1460272475.9,286047006.6,P
1460272495.7,286047006.9,P
1460272515.5,286047008.4,P
1460272535.4,286047006.1,N
1460272555.2,286047007.3,Y
1460272575.0,286047000.7,P
1460272576.0,286047000.7,N
1460272595.8,286046998.5,N
1460272615.6,286046999.6,N
1460272635.4,286046998.5,N
1460272655.3,286046999.7,N
1460272675.1,286047002.0,N
1460272695.8,286047003.3,N
1460272715.7,286047007.3,Y
1460272735.5,286047007.1,P
1460272755.3,286047005.0,N
1460272775.2,286047006.8,N
1460272795.9,286047007.0,N
1460272815.7,286047006.8,N
1460272835.6,286047010.7,Y
1460272855.4,286047005.2,P
1460272875.2,286047003.0,P
1460272895.1,286047004.8,P
1460272896.0,286047004.8,Y
1460272915.8,286046998.9,P
1460272935.6,286046997.0,N
1460272955.5,286046994.9,N
1460272975.3,286046995.0,N
1460272995.1,286046995.9,N
1460273015.9,286046997.2,N
1460273035.7,286046992.5,N
1460273055.5,286046994.0,N
1460273075.4,286046992.4,N
1460273095.2,286046997.5,N
1460273115.0,286046996.7,N
1460273115.9,286046996.7,N
1460273135.8,286047001.2,N
1460273155.6,286046998.5,N
1460273175.4,286047000.8,N
1460273195.2,286046998.2,N
1460273215.1,286046996.0,N
1460273216.0,286046996.0,N
1460273235.8,286046994.5,N
1460273255.6,286046995.1,N
1460273275.5,286046997.0,N
1460273295.3,286046997.6,N
1460273315.1,286046994.1,N
1460273335.9,286046994.0,N
1460273355.7,286046997.2,N
1460273375.5,286046997.3,N
1460273395.4,286046997.0,N
1460273415.2,286046997.0,N
1460273435.0,286046996.8,N
1460273435.9,286046996.8,N
1460273455.8,286046999.2,N
1460273475.6,286046996.8,N
1460273495.4,286046996.9,N
1460273515.2,286047001.0,N
1460273535.1,286046999.5,N
1460273536.0,286046999.5,N
1460273555.8,286046998.8,N
1460273575.6,286046999.7,N
1460273595.5,286047002.8,N
1460273615.3,286047005.5,N
1460273635.1,286047005.1,N
1460273655.9,286047009.0,Y
1460273675.7,286047009.4,P
1460273695.5,286047012.1,N
1460273715.4,286047012.3,N
1460273735.2,286047013.0,N
1460273755.0,286047014.5,N
1460273755.9,286047014.5,N
1460273775.8,286047016.2,Y
1460273795.6,286047007.9,P
1460273815.4,286047010.0,P
1460273835.3,286047010.4,P
1460273855.1,286047010.5,Y
1460273875.8,286047000.7,P
1460273895.7,286047002.5,N
1460273915.5,286047003.8,N
1460273935.3,286047003.8,N
1460273955.2,286047005.2,N
1460273975.9,286047003.4,N
1460273995.7,286047006.0,N
1460274015.6,286047003.1,N
1460274035.4,286047004.7,N
1460274055.2,286047005.2,N
1460274075.1,286047006.8,Y
1460274076.0,286047006.8,P
1460274095.8,286047002.3,N
1460274115.6,286047003.9,N
1460274135.4,286046999.9,N
1460274155.3,286047002.0,N
1460274175.1,286047000.1,N
1460274195.8,286046999.5,N
1460274215.7,286047001.2,N
1460274235.5,286046996.5,N
1460274255.3,286046996.5,N
1460274275.2,286046993.3,N
1460274295.9,286046992.2,N
1460274315.7,286046990.6,N
1460274335.6,286046990.9,N
1460274355.4,286046990.2,N
1460274375.2,286046992.6,N
1460274395.1,286046993.1,N
1460274396.0,286046993.1,N
1460274415.8,286046990.4,N
1460274435.6,286046988.5,N
1460274455.4,286046988.3,N
1460274475.3,286046987.3,N
1460274495.1,286046986.0,N
1460274515.8,286046984.2,N
1460274535.7,286046982.4,N
1460274555.5,286046979.3,Y
1460274575.3,286046982.3,P
1460274595.2,286046981.3,P
1460274615.0,286046980.0,P
1460274615.9,286046980.0,Y
1460274635.7,286046994.6,P
1460274655.6,286046990.7,N
1460274675.4,286046990.8,N
1460274695.3,286046988.7,Y
1460274715.1,286047001.1,P
1460274716.0,286047001.1,N
1460274735.8,286046997.2,N
1460274755.6,286046993.5,N
1460274775.5,286046993.6,N
1460274795.3,286046995.4,N
1460274815.1,286046997.0,N
1460274835.9,286046991.9,N
1460274855.7,286046994.0,N
1460274875.5,286046994.2,N
1460274895.4,286046996.4,N
1460274915.2,286046994.3,N
1460274935.0,286046990.6,Y
1460274935.9,286046990.6,P
1460274955.8,286046993.5,N
1460274975.6,286046993.6,P
1460274995.4,286046996.0,N
1460275015.3,286046996.4,N
1460275035.1,286046992.3,Y
1460275055.8,286046999.4,P
1460275075.7,286046996.8,N
1460275095.5,286046997.4,N
1460275115.3,286046996.6,N
1460275135.2,286046999.5,N
1460275155.9,286046997.2,N
1460275175.7,286046996.2,N
1460275195.6,286046994.6,Y
